Home > Weather > Erding > Past weeks

Flag for Germany Weather for the Past 2 Weeks in Erding, Bavaria, Germany

Now
41 °F

Passing clouds.


Feels Like: 36 °F
Forecast: 29 / 42 °F
Wind: 8 mph from Northwest

Location: Munich / Franz Josef Strauss Airport

Current Time: Feb 11, 2016 at 4:55:54 PM

Latest Report: Feb 11, 2016 at 4:20 PM


Visibility: N/A

Pressure: 29.71 "Hg

Humidity: 57%

Dew point: 27 °F

Location of ErdingLocation

Historic Weather in Erding — Graph

°F

Erding Temperature Yesterday

Maximum temperature yesterday: 43 °F (at 12:20 AM)
Minimum temperature yesterday: 32 °F (at 8:20 AM)
Average temperature yesterday: 37 °F

High & Low Weather Summary for the Past Weeks

 TemperatureHumidityPressure
High57 °F (Jan 27, 3:20 PM)100% (Jan 28, 7:20 PM)30.45 "Hg (Jan 28, 7:20 PM)
Low27 °F (Feb 6, 3:50 AM)47% (Jan 28, 11:20 AM)29.24 "Hg (Feb 9, 7:50 PM)
Average42 °F82%30.00 "Hg
* Reported Jan 27 3:20 PM — Feb 11 3:50 PM, Erding, Weather by CustomWeather, © 2016

Note: Actual official high and low records may vary slightly from our data, if they occured in-between our weather recording intervals... More about our weather records

Advertising

Erding Weather History for the Previous 24 Hours

 ConditionsComfort  
Time TempWeatherWind HumidityBarometerVisibility
3:50 PM
Thu, Feb 11
41 °FPassing clouds.8 mph57%29.71 "HgN/A
3:20 PM43 °FPassing clouds.9 mph53%29.71 "HgN/A
2:50 PM43 °FPassing clouds.14 mph53%29.71 "HgN/A
2:20 PM43 °FPassing clouds.10 mph57%29.74 "HgN/A
1:50 PM41 °FPassing clouds.17 mph61%29.74 "HgN/A
1:20 PM41 °FScattered clouds.18 mph57%29.74 "HgN/A
12:50 PM41 °FPartly sunny.16 mph61%29.74 "HgN/A
12:20 PM43 °FPartly sunny.17 mph57%29.74 "HgN/A
11:50 AM41 °FBroken clouds.17 mph61%29.74 "HgN/A
11:20 AM39 °FBroken clouds.21 mph65%29.74 "HgN/A
10:50 AM39 °FBroken clouds.21 mph65%29.74 "HgN/A
10:20 AM37 °FBroken clouds.22 mph75%29.74 "HgN/A
9:50 AM37 °FBroken clouds.24 mph75%29.74 "HgN/A
9:20 AM36 °FLight snow. Broken clouds.22 mph81%29.74 "HgN/A
8:50 AM36 °FLight snow. Broken clouds.18 mph81%29.74 "HgN/A
8:20 AM34 °FSnow flurries. Broken clouds.20 mph87%29.74 "HgN/A
7:50 AM36 °FSleet. Broken clouds.21 mph75%29.71 "HgN/A
7:20 AM36 °FSleet. Passing clouds.23 mph75%29.71 "HgN/A
6:50 AM36 °FLight snow. Partly cloudy.23 mph75%29.71 "HgN/A
6:20 AM36 °FLight rain. Passing clouds.24 mph75%29.68 "HgN/A
5:50 AM36 °FLight rain. Passing clouds.22 mph75%29.68 "HgN/A
5:20 AM36 °FPartly cloudy.23 mph75%29.68 "HgN/A
4:20 AM34 °FPartly cloudy.25 mph87%29.68 "HgN/A
3:20 AM34 °FPassing clouds.20 mph87%29.65 "HgN/A
2:50 AM34 °FPartly cloudy.21 mph87%29.65 "HgN/A
2:20 AM34 °FPartly cloudy.23 mph87%29.65 "HgN/A
1:50 AM34 °FLight rain. Passing clouds.22 mph87%29.65 "HgN/A
1:20 AM36 °FRain. Partly cloudy.26 mph81%29.65 "Hg3 mi
12:50 AM37 °FLight rain. Partly cloudy.22 mph65%29.62 "HgN/A
12:20 AM37 °FLight rain. Partly cloudy.22 mph60%29.62 "HgN/A
11:50 PM
Wed, Feb 10
37 °FPartly cloudy.23 mph60%29.59 "HgN/A
10:50 PM36 °FPassing clouds.23 mph75%29.59 "HgN/A
10:20 PM37 °FSnow flurries. Partly cloudy.26 mph70%29.59 "HgN/A
9:50 PM39 °FPartly cloudy.24 mph61%29.59 "HgN/A
9:20 PM37 °FPassing clouds.23 mph70%29.59 "HgN/A
8:50 PM37 °FPartly cloudy.22 mph70%29.56 "HgN/A
8:20 PM37 °FSnow flurries. Partly cloudy.26 mph70%29.56 "HgN/A
7:50 PM37 °FSnow flurries. Partly cloudy.24 mph70%29.53 "HgN/A
7:20 PM37 °FPassing clouds.24 mph70%29.53 "HgN/A
6:50 PM37 °FPartly cloudy.23 mph75%29.53 "HgN/A
6:20 PM36 °FSnow flurries. Partly cloudy.25 mph81%29.53 "HgN/A
5:50 PM37 °FSnow flurries. Partly cloudy.28 mph75%29.50 "HgN/A
5:20 PM37 °FBroken clouds.29 mph70%29.50 "HgN/A
4:50 PM37 °FBroken clouds.25 mph70%29.47 "HgN/A
4:20 PM37 °FBroken clouds.24 mph70%29.47 "HgN/A
Weather by CustomWeather, © 2016

See weather overviewHow to use our weather pages